GW1998 Weather Reports


Display with metric or nautical units.
time (UTC)temp
F
wind
direction
speed
MPH
gust
MPH
rain 1hr
in
rain 24hr
in
rain mn
in
humidity
%
barometer
mb
20260506154819 53 26 9.0 13.0 0.00 0.00 0.00 84 1016.0
20260506153821 53 15 9.0 14.0 0.00 0.00 0.00 84 1015.7
20260506152920 52 9 9.0 14.0 0.00 0.00 0.00 85 1016.1
20260506151920 51 23 9.0 13.0 0.00 0.00 0.00 85 1016.9
20260506150921 51 27 6.0 8.0 0.00 0.00 0.00 86 1017.2
20260506144922 52 314 2.0 4.0 0.00 0.00 0.00 81 1018.3
20260506142019 52 358 10.0 16.0 0.00 0.00 0.00 82 1016.4
20260506141020 52 31 11.0 15.0 0.00 0.00 0.00 80 1016.1
20260506140020 52 13 10.0 15.0 0.00 0.00 0.00 79 1016.4
20260506135119 52 352 7.0 12.0 0.00 0.00 0.00 79 1017.1
20260506134122 52 7 7.0 12.0 0.00 0.00 0.00 79 1016.4
20260506133219 52 23 9.0 12.0 0.00 0.00 0.00 79 1016.0
20260506132220 52 354 5.0 11.0 0.00 0.00 0.00 79 1015.9
20260506131220 52 356 11.0 15.0 0.00 0.00 0.00 78 1015.8
20260506130220 52 355 8.0 14.0 0.00 0.00 0.00 78 1015.6
20260506125220 53 358 10.0 14.0 0.00 0.00 0.00 77 1015.2
20260506124238 53 9 9.0 14.0 0.00 0.00 0.00 76 1015.2
20260506123320 54 28 12.0 17.0 0.00 0.00 0.00 75 1015.0
20260506122323 54 5 11.0 16.0 0.00 0.00 0.00 73 1015.1
20260506121321 54 23 8.0 11.0 0.00 0.00 0.00 73 1015.0
20260506114420 55 22 10.0 15.0 0.00 0.00 0.00 72 1014.7
20260506113519 55 19 8.0 12.0 0.00 0.00 0.00 72 1014.5
20260506112520 55 29 11.0 18.0 0.00 0.00 0.00 71 1014.2
20260506111522 56 20 7.0 11.0 0.00 0.00 0.00 71 1014.3
20260506110521 56 27 11.0 18.0 0.00 0.00 0.00 71 1013.9
20260506105620 56 355 8.0 14.0 0.00 0.00 0.00 72 1014.0
20260506104620 57 19 7.0 11.0 0.00 0.00 0.00 73 1013.5
20260506103620 57 22 9.0 13.0 0.00 0.00 0.00 72 1013.7
20260506102621 57 8 9.0 16.0 0.00 0.00 0.00 72 1013.4
20260506101623 57 7 8.0 14.0 0.00 0.00 0.00 72 1013.1
20260506100721 57 28 10.0 15.0 0.00 0.00 0.00 72 1013.1
20260506095722 57 7 8.0 11.0 0.00 0.00 0.00 73 1013.0
20260506094722 57 21 6.0 9.0 0.00 0.00 0.00 73 1012.7
20260506093723 57 12 9.0 14.0 0.00 0.00 0.00 73 1012.7
20260506092721 57 7 7.0 10.0 0.00 0.00 0.00 73 1012.8
20260506090719 57 20 7.0 10.0 0.00 0.00 0.00 73 1012.6
20260506085721 58 11 6.0 9.0 0.00 0.00 0.00 73 1012.5
20260506083721 58 355 4.0 9.0 0.00 0.00 0.00 74 1012.4
20260506082722 58 9 7.0 10.0 0.00 0.00 0.00 74 1012.2
20260506081721 58 1 8.0 12.0 0.00 0.00 0.00 74 1012.1
20260506072720 59 36 6.0 8.0 0.00 0.00 0.00 75 1011.9
20260506061720 60 36 6.0 9.0 0.00 0.00 0.00 75 1011.8
20260506060720 61 4 6.0 9.0 0.00 0.00 0.00 75 1011.7
20260506050820 62 23 5.0 11.0 0.00 0.00 0.00 74 1011.8
20260506044825 63 15 10.0 13.0 0.00 0.00 0.00 73 1011.7
20260506043825 63 24 8.0 14.0 0.00 0.00 0.00 73 1011.6
20260506042826 64 26 9.0 11.0 0.00 0.00 0.00 73 1011.5
20260506041826 64 27 9.0 13.0 0.00 0.00 0.00 72 1011.7
20260506040827 65 14 8.0 14.0 0.00 0.00 0.00 72 1011.7
20260506035924 66 9 7.0 9.0 0.00 0.00 0.00 71 1011.7
20260506034925 66 359 10.0 15.0 0.00 0.00 0.00 70 1011.4
20260506033927 66 16 9.0 16.0 0.00 0.00 0.00 70 1011.0
20260506032925 66 3 9.0 16.0 0.00 0.00 0.00 69 1010.9
20260506031927 67 8 10.0 15.0 0.00 0.00 0.00 69 1010.8
20260506030925 67 2 10.0 14.0 0.00 0.00 0.00 68 1010.4
20260506030024 67 8 7.0 10.0 0.00 0.00 0.00 68 1010.1
20260506025026 68 26 8.0 11.0 0.00 0.00 0.00 67 1010.0
20260506024026 68 17 7.0 10.0 0.00 0.00 0.00 67 1010.1
20260506023125 68 24 11.0 15.0 0.00 0.00 0.00 67 1009.7
20260506022125 69 1 8.0 13.0 0.00 0.00 0.00 66 1009.6
20260506021125 69 7 9.0 16.0 0.00 0.00 0.00 66 1009.5
20260506020125 70 3 9.0 14.0 0.00 0.00 0.00 66 1009.2
20260506020026 70 12 10.0 15.0 0.00 0.00 0.00 66 1009.2
20260506015025 71 9 9.0 12.0 0.00 0.00 0.00 66 1008.8
20260506014026 71 19 7.0 10.0 0.00 0.00 0.00 65 1008.6
20260506013027 72 8 7.0 12.0 0.00 0.00 0.00 64 1008.3
20260506012126 72 24 9.0 12.0 0.00 0.00 0.00 64 1008.1
20260506011139 73 13 7.0 9.0 0.00 0.00 0.00 63 1007.7
20260506005225 74 356 4.0 6.0 0.00 0.00 0.00 62 1007.7
20260506004238 74 348 5.0 8.0 0.00 0.00 0.00 62 1007.6
20260506003226 75 355 5.0 8.0 0.00 0.00 0.00 61 1007.3
20260506002325 75 20 6.0 9.0 0.00 0.00 0.00 59 1007.4
20260506001327 76 9 8.0 11.0 0.00 0.00 0.00 58 1007.2
20260506000425 76 360 9.0 14.0 0.00 0.00 0.00 56 1007.1
20260505235427 77 5 7.0 12.0 0.00 0.00 0.00 56 1007.1
20260505232624 79 338 8.0 15.0 0.00 0.00 0.00 56 1006.6
20260505231724 80 350 8.0 14.0 0.00 0.00 0.00 55 1006.6
20260505230726 81 5 11.0 16.0 0.00 0.00 0.00 55 1006.3
20260505225726 82 14 6.0 12.0 0.00 0.00 0.00 55 1006.3
20260505224728 84 360 8.0 12.0 0.00 0.00 0.00 50 1006.0
20260505223724 86 8 6.0 9.0 0.00 0.00 0.00 44 1005.9
20260505222727 86 348 6.0 11.0 0.00 0.00 0.00 42 1005.8
20260505220724 90 4 9.0 12.0 0.00 0.00 0.00 40 1005.7
20260505215726 92 5 5.0 10.0 0.00 0.00 0.00 39 1005.4
20260505214725 93 252 5.0 9.0 0.00 0.00 0.00 38 1005.5
20260505214625 93 290 3.0 6.0 0.00 0.00 0.00 38 1005.6
20260505213625 93 265 2.0 4.0 0.00 0.00 0.00 38 1005.6
20260505212626 93 236 3.0 5.0 0.00 0.00 0.00 37 1005.6
20260505211625 94 250 4.0 6.0 0.00 0.00 0.00 37 1005.8
20260505210625 93 224 4.0 5.0 0.00 0.00 0.00 38 1005.8
20260505205725 93 286 4.0 7.0 0.00 0.00 0.00 36 1006.1
20260505204726 92 235 4.0 8.0 0.00 0.00 0.00 39 1006.1
20260505203727 91 240 7.0 11.0 0.00 0.00 0.00 43 1006.3
20260505202724 91 200 4.0 6.0 0.00 0.00 0.00 44 1006.3
20260505202624 91 201 4.0 6.0 0.00 0.00 0.00 44 1006.2
20260505201625 90 227 8.0 14.0 0.00 0.00 0.00 45 1006.4
20260505200628 90 236 6.0 11.0 0.00 0.00 0.00 44 1006.5
20260505195626 89 233 3.0 5.0 0.00 0.00 0.00 46 1006.5
20260505194626 89 218 6.0 12.0 0.00 0.00 0.00 46 1006.5
20260505193725 88 234 10.0 15.0 0.00 0.00 0.00 49 1006.5
20260505192824 88 240 6.0 10.0 0.00 0.00 0.00 49 1006.6
20260505191825 87 226 9.0 12.0 0.00 0.00 0.00 50 1006.7
20260505190826 87 213 11.0 16.0 0.00 0.00 0.00 51 1006.6
20260505185824 86 199 10.0 15.0 0.00 0.00 0.00 52 1006.6
20260505184826 86 246 12.0 18.0 0.00 0.00 0.00 53 1006.4
20260505183825 86 225 11.0 16.0 0.00 0.00 0.00 53 1006.7
20260505182825 85 225 7.0 11.0 0.00 0.00 0.00 57 1006.7
20260505181826 85 221 6.0 10.0 0.00 0.00 0.00 58 1006.8
20260505180825 84 224 11.0 17.0 0.00 0.00 0.00 58 1006.9
20260505175826 83 219 11.0 18.0 0.00 0.00 0.00 60 1007.0
20260505173925 82 222 9.0 13.0 0.00 0.00 0.00 62 1007.0
20260505173024 82 225 12.0 19.0 0.00 0.00 0.00 64 1007.0
20260505172026 81 209 8.0 11.0 0.00 0.00 0.00 65 1007.1
20260505171124 81 223 10.0 15.0 0.00 0.00 0.00 65 1007.0
20260505170126 81 218 11.0 18.0 0.00 0.00 0.00 65 1007.0
20260505165224 81 217 7.0 12.0 0.00 0.00 0.00 66 1007.2
20260505163323 79 214 13.0 17.0 0.00 0.00 0.00 67 1007.1
20260505161325 78 218 13.0 20.0 0.00 0.00 0.00 69 1006.6
20260505160325 78 212 10.0 16.0 0.00 0.00 0.00 70 1006.5